Regional Weather Roundup
Issued by NWS Kansas City/Pleasant Hill, MO

Home | Current Version | Previous Version | Graphics & Text | Print | Product List | Glossary Off
Versions: 1 2 3 4 5 6 7 8 9 10 11 12 13 14 15 16 17 18 19 20 21 22 23 24 25 26 27 28 29 30 31 32 33 34 35 36 37 38 39 40 41 42 43 44 45 46 47 48 49 50

000
ASUS43 KEAX 230811
RWREAX

WEATHER ROUNDUP FOR EASTERN KANSAS AND NORTHWEST MISSOURI
NATIONAL WEATHER SERVICE KANSAS CITY/PLEASANT HILL MO
200 AM CST SUN NOV 23 2014

KSZ040-057-103>105-MOZ028-029-037-043-230900-
...KANSAS CITY METROPOLITAN AREA...

CITY           SKY/WX    TMP DP  RH WIND       PRES   REMARKS
K.C. INTL      CLOUDY    54  51  90 S10       29.63F
K.C. DOWNTOWN  CLOUDY    55  50  83 S8        29.64F
LEES SUMMIT    NOT AVBL
OLATHE - IXD   CLOUDY    52  50  93 SE10      29.64F
OLATHE - OJC   CLOUDY    52  51  97 S10       29.63F
LAWRENCE       CLOUDY    55  51  86 S10       29.63F

$$

MOZ001>008-011>017-020>025-030>033-038>040-044>046-053-054-230900-
...NORTHERN AND CENTRAL MISSOURI...

CITY           SKY/WX    TMP DP  RH WIND       PRES   REMARKS
ST. JOSEPH     CLOUDY    55  51  86 S14       29.62F
MOSBY          CLOUDY    54  50  87 SE6       29.65F
WARRENSBURG    CLOUDY    50  48  93 SE6       29.67F
WHITEMAN AFB   CLOUDY    53  50  88 S10       29.67F
CLINTON        CLOUDY    55  52  88 S12       29.68F
SEDALIA        CLOUDY    56  50  80 S14       29.69F
WARSAW         NOT AVBL
MARSHALL       CLOUDY    54  52  94 SE6       29.69F
CHILLICOTHE      N/A     54  50  86 S8        29.68F
MOBERLY        CLOUDY    54  48  82 S12G17    29.71F
KIRKSVILLE     CLOUDY    54  51  90 S12       29.70F

$$

MOZ041-047>049-056>058-063>065-088>090-097-230900-
...EASTERN AND SOUTHERN MISSOURI...

CITY           SKY/WX    TMP DP  RH WIND       PRES   REMARKS
ST. LOUIS INTL CLOUDY    57  44  62 S13       29.81F
SPIRIT OF STL  CLOUDY    55  45  68 S9        29.79F
COLUMBIA       CLOUDY    52  49  89 SE9       29.72F
JEFFERSON CITY CLOUDY    53  48  83 E7        29.74F
MEXICO         MOCLDY    52  52 100 S6        29.73F
ROLLA          CLOUDY    53  47  79 S17       29.75F
LEBANON        CLOUDY    54  50  87 S17       29.74F
OSAGE BEACH    CLOUDY    55  48  76 S13       29.74S
SPRINGFIELD    MOCLDY    54  51  90 SE15      29.68F
BRANSON        CLOUDY    54  52  94 SE6       29.70F
NEVADA         CLOUDY    54  50  87 SE12      29.66F
JOPLIN         CLOUDY    57  53  86 S12       29.66F
WEST PLAINS    CLOUDY    52  46  80 SE12G18   29.79F

$$

IAZ060-094-KSZ022-034>040-054-083-096-NEZ052-066-093-230900-
...KANSAS...SOUTHEAST NEBRASKA AND IOWA...

CITY           SKY/WX    TMP DP  RH WIND       PRES   REMARKS
TOPEKA         LGT RAIN  55  54  96 SE7       29.61F FOG
MANHATTAN      CLOUDY    55  53  93 S10       29.56F
EMPORIA        CLOUDY    54  53  97 S15       29.59F FOG
CHANUTE        CLOUDY    55  53  93 S8        29.63F
WICHITA        CLOUDY    55  53  93 S17       29.55F
OMAHA          CLOUDY    53  52  96 SE10      29.52F
LINCOLN        CLOUDY    56  51  84 S12       29.50F
FALLS CITY     CLOUDY    54  51  90 S8        29.58F
LAMONI         CLOUDY    52  50  93 S10       29.63F
DES MOINES     CLOUDY    54  50  86 S12       29.60F

$$




USA.gov is the U.S. government's official web portal to all federal, state and local government web resources and services.